| time (UTC) | temp F | wind direction | speed MPH | gust MPH | rain 1hr in | rain 24hr in | rain mn in | humidity % | barometer mb |
| 20260506183840 | 52 | 225 | 9.0 | 17.0 | 0.00 | 0.27 | 0.27 | 80 | 1009.6 |
| 20260506182504 | 52 | 225 | 9.0 | 17.0 | 0.00 | 0.27 | 0.27 | 80 | 1009.6 |
| 20260506181122 | 52 | 225 | 9.0 | 17.0 | 0.00 | 0.27 | 0.27 | 80 | 1009.6 |
| 20260506175824 | 52 | 270 | 10.0 | 19.0 | 0.00 | 0.27 | 0.27 | 81 | 1009.2 |
| 20260506174442 | 52 | 270 | 10.0 | 19.0 | 0.00 | 0.27 | 0.27 | 81 | 1009.2 |
| 20260506173135 | 52 | 270 | 11.0 | 19.0 | 0.00 | 0.27 | 0.27 | 81 | 1008.9 |
| 20260506171805 | 52 | 270 | 11.0 | 19.0 | 0.00 | 0.27 | 0.27 | 81 | 1008.9 |
| 20260506170444 | 52 | 270 | 11.0 | 19.0 | 0.00 | 0.27 | 0.27 | 81 | 1008.9 |
| 20260506165110 | 52 | 270 | 11.0 | 19.0 | 0.00 | 0.27 | 0.27 | 81 | 1008.9 |
| 20260506163745 | 52 | 270 | 11.0 | 19.0 | 0.00 | 0.27 | 0.27 | 81 | 1008.9 |
| 20260506162329 | 51 | 270 | 7.0 | 14.0 | 0.00 | 0.27 | 0.27 | 84 | 1009.3 |
| 20260506160955 | 51 | 270 | 7.0 | 14.0 | 0.00 | 0.27 | 0.27 | 84 | 1009.3 |
| 20260506155535 | 50 | 270 | 14.0 | 30.0 | 0.10 | 0.27 | 0.27 | 90 | 1009.2 |
| 20260506154230 | 50 | 270 | 14.0 | 30.0 | 0.10 | 0.27 | 0.27 | 90 | 1009.2 |
| 20260506153010 | 50 | 270 | 14.0 | 30.0 | 0.10 | 0.27 | 0.27 | 90 | 1009.2 |
| 20260506151741 | 50 | 270 | 14.0 | 30.0 | 0.10 | 0.27 | 0.27 | 90 | 1009.2 |
| 20260506150345 | 51 | 225 | 17.0 | 36.0 | 0.16 | 0.17 | 0.17 | 92 | 1008.3 |
| 20260506145005 | 51 | 225 | 17.0 | 36.0 | 0.16 | 0.17 | 0.17 | 92 | 1008.3 |
| 20260506143705 | 51 | 225 | 17.0 | 36.0 | 0.16 | 0.17 | 0.17 | 92 | 1008.3 |
| 20260506142315 | 54 | 270 | 19.0 | 36.0 | 0.00 | 0.01 | 0.01 | 77 | 1007.1 |
| 20260506141001 | 54 | 270 | 19.0 | 36.0 | 0.00 | 0.01 | 0.01 | 77 | 1007.1 |
| 20260506135630 | 60 | 315 | 2.0 | 6.0 | 0.00 | 0.01 | 0.01 | 64 | 1005.9 |
| 20260506134315 | 60 | 315 | 2.0 | 6.0 | 0.00 | 0.01 | 0.01 | 64 | 1005.9 |
| 20260506132915 | 59 | 315 | 4.0 | 6.0 | 0.00 | 0.01 | 0.01 | 62 | 1005.8 |
| 20260506131520 | 59 | 315 | 4.0 | 6.0 | 0.00 | 0.01 | 0.01 | 62 | 1005.8 |
| 20260506130221 | 59 | 270 | 4.0 | 8.0 | 0.00 | 0.01 | 0.01 | 70 | 1005.8 |
| 20260506124920 | 59 | 270 | 4.0 | 8.0 | 0.00 | 0.01 | 0.01 | 70 | 1005.8 |
| 20260506123553 | 59 | 270 | 4.0 | 8.0 | 0.00 | 0.01 | 0.01 | 70 | 1005.8 |
| 20260506122235 | 59 | 270 | 4.0 | 8.0 | 0.00 | 0.01 | 0.01 | 70 | 1005.8 |
| 20260506120755 | 59 | 270 | 4.0 | 8.0 | 0.00 | 0.01 | 0.01 | 70 | 1005.8 |
| 20260506115452 | 58 | 270 | 4.0 | 7.0 | 0.00 | 0.01 | 0.01 | 77 | 1006.2 |
| 20260506114145 | 58 | 270 | 4.0 | 7.0 | 0.00 | 0.01 | 0.01 | 77 | 1006.2 |
| 20260506112900 | 58 | 270 | 3.0 | 6.0 | 0.00 | 0.01 | 0.01 | 76 | 1006.3 |
| 20260506111449 | 58 | 270 | 3.0 | 6.0 | 0.00 | 0.01 | 0.01 | 76 | 1006.3 |
| 20260506110240 | 56 | 225 | 4.0 | 6.0 | 0.00 | 0.01 | 0.01 | 81 | 1006.7 |
| 20260506104900 | 56 | 225 | 4.0 | 6.0 | 0.00 | 0.01 | 0.01 | 81 | 1006.7 |
| 20260506103510 | 55 | 270 | 4.0 | 5.0 | 0.00 | 0.00 | 0.00 | 85 | 1006.7 |
| 20260506102125 | 55 | 270 | 4.0 | 5.0 | 0.00 | 0.00 | 0.00 | 85 | 1006.7 |
| 20260506100825 | 55 | 270 | 4.0 | 5.0 | 0.00 | 0.00 | 0.00 | 85 | 1006.7 |
| 20260506095400 | 55 | 0 | 2.0 | 3.0 | 0.00 | 0.00 | 0.00 | 83 | 1006.6 |
| 20260506094005 | 55 | 0 | 2.0 | 3.0 | 0.00 | 0.00 | 0.00 | 83 | 1006.6 |
| 20260506092621 | 55 | 225 | 2.0 | 3.0 | 0.00 | 0.00 | 0.00 | 86 | 1006.8 |
| 20260506091250 | 55 | 225 | 2.0 | 3.0 | 0.00 | 0.00 | 0.00 | 86 | 1006.8 |
| 20260506085940 | 54 | 225 | 2.0 | 5.0 | 0.00 | 0.00 | 0.00 | 89 | 1006.8 |
| 20260506084740 | 54 | 225 | 2.0 | 5.0 | 0.00 | 0.00 | 0.00 | 89 | 1006.8 |
| 20260506083510 | 54 | 315 | 1.0 | 4.0 | 0.00 | 0.00 | 0.00 | 87 | 1006.9 |
| 20260506082106 | 54 | 315 | 1.0 | 4.0 | 0.00 | 0.00 | 0.00 | 87 | 1006.9 |
| 20260506080655 | 54 | 315 | 1.0 | 4.0 | 0.00 | 0.00 | 0.00 | 87 | 1006.9 |
| 20260506072611 | 52 | 180 | 2.0 | 4.0 | 0.00 | 0.00 | 0.00 | 95 | 1007.2 |
| 20260506071147 | 52 | 180 | 2.0 | 4.0 | 0.00 | 0.00 | 0.00 | 95 | 1007.2 |
| 20260506061630 | 49 | 315 | 1.0 | 5.0 | 0.00 | 0.00 | 0.00 | 97 | 1007.6 |
| 20260506060315 | 47 | 270 | 2.0 | 4.0 | 0.00 | 0.00 | 0.00 | 96 | 1007.9 |
| 20260506050845 | 47 | 0 | 2.0 | 4.0 | 0.00 | 0.00 | 0.00 | 97 | 1008.1 |
| 20260506044120 | 47 | 0 | 3.0 | 5.0 | 0.00 | 0.00 | 0.00 | 97 | 1008.7 |
| 20260506042900 | 47 | 0 | 3.0 | 5.0 | 0.00 | 0.00 | 0.00 | 97 | 1008.7 |
| 20260506041621 | 47 | 0 | 3.0 | 5.0 | 0.00 | 0.00 | 0.00 | 97 | 1008.7 |
| 20260506040420 | 47 | 45 | 3.0 | 5.0 | 0.00 | 0.00 | 0.00 | 96 | 1009.0 |
| 20260506034925 | 47 | 45 | 3.0 | 5.0 | 0.00 | 0.00 | 0.00 | 96 | 1009.0 |
| 20260506033545 | 47 | 0 | 2.0 | 3.0 | 0.00 | 0.00 | 0.00 | 95 | 1009.1 |
| 20260506032215 | 47 | 0 | 2.0 | 3.0 | 0.00 | 0.00 | 0.00 | 95 | 1009.1 |
| 20260506030739 | 47 | 0 | 2.0 | 3.0 | 0.00 | 0.00 | 0.00 | 95 | 1009.1 |
| 20260506025428 | 47 | 0 | 2.0 | 4.0 | 0.00 | 0.00 | 0.00 | 96 | 1009.4 |
| 20260506024045 | 47 | 0 | 2.0 | 4.0 | 0.00 | 0.00 | 0.00 | 96 | 1009.4 |
| 20260506022820 | 48 | 0 | 2.0 | 2.0 | 0.00 | 0.00 | 0.00 | 96 | 1009.4 |
| 20260506021450 | 48 | 0 | 2.0 | 2.0 | 0.00 | 0.00 | 0.00 | 96 | 1009.4 |
| 20260506020100 | 47 | 45 | 2.0 | 4.0 | 0.00 | 0.00 | 0.00 | 96 | 1010.0 |
| 20260506014655 | 47 | 45 | 2.0 | 4.0 | 0.00 | 0.00 | 0.00 | 96 | 1010.0 |
| 20260506013300 | 47 | 45 | 2.0 | 4.0 | 0.00 | 0.00 | 0.00 | 96 | 1010.0 |
| 20260506012000 | 47 | 45 | 2.0 | 4.0 | 0.00 | 0.00 | 0.00 | 96 | 1010.0 |
| 20260506010710 | 47 | 45 | 2.0 | 4.0 | 0.00 | 0.00 | 0.00 | 96 | 1010.0 |
| 20260506005337 | 48 | 0 | 2.0 | 4.0 | 0.00 | 0.00 | 0.00 | 94 | 1009.8 |
| 20260506004100 | 48 | 0 | 2.0 | 4.0 | 0.00 | 0.00 | 0.00 | 94 | 1009.8 |
| 20260506002740 | 49 | 45 | 2.0 | 4.0 | 0.00 | 0.00 | 0.00 | 94 | 1010.0 |
| 20260506001423 | 49 | 45 | 2.0 | 4.0 | 0.00 | 0.00 | 0.00 | 94 | 1010.0 |
| 20260506000120 | 49 | 45 | 2.0 | 4.0 | 0.00 | 0.00 | 0.00 | 94 | 1010.2 |
| 20260505234755 | 49 | 45 | 2.0 | 4.0 | 0.00 | 0.00 | 0.00 | 94 | 1010.2 |
| 20260505233430 | 49 | 45 | 2.0 | 4.0 | 0.00 | 0.00 | 0.00 | 94 | 1010.2 |
| 20260505232015 | 49 | 45 | 2.0 | 4.0 | 0.00 | 0.00 | 0.00 | 94 | 1010.2 |
| 20260505230710 | 49 | 45 | 2.0 | 4.0 | 0.00 | 0.00 | 0.00 | 94 | 1010.2 |
| 20260505225300 | 49 | 45 | 2.0 | 3.0 | 0.00 | 0.00 | 0.00 | 91 | 1010.5 |
| 20260505223853 | 49 | 45 | 2.0 | 3.0 | 0.00 | 0.00 | 0.00 | 91 | 1010.5 |
| 20260505222600 | 51 | 90 | 2.0 | 2.0 | 0.00 | 0.00 | 0.00 | 91 | 1010.3 |
| 20260505221215 | 51 | 90 | 2.0 | 2.0 | 0.00 | 0.00 | 0.00 | 91 | 1010.3 |
| 20260505215915 | 51 | 45 | 2.0 | 8.0 | 0.00 | 0.00 | 0.00 | 92 | 1010.4 |
| 20260505214630 | 51 | 45 | 2.0 | 8.0 | 0.00 | 0.00 | 0.00 | 92 | 1010.4 |
| 20260505213400 | 53 | 0 | 2.0 | 8.0 | 0.00 | 0.00 | 0.00 | 87 | 1010.0 |
| 20260505212040 | 53 | 0 | 2.0 | 8.0 | 0.00 | 0.00 | 0.00 | 87 | 1010.0 |
| 20260505210740 | 53 | 0 | 2.0 | 8.0 | 0.00 | 0.00 | 0.00 | 87 | 1010.0 |
| 20260505205353 | 54 | 180 | 2.0 | 7.0 | 0.00 | 0.00 | 0.00 | 83 | 1009.4 |
| 20260505204002 | 54 | 180 | 2.0 | 7.0 | 0.00 | 0.00 | 0.00 | 83 | 1009.4 |
| 20260505202621 | 54 | 180 | 2.0 | 7.0 | 0.00 | 0.00 | 0.00 | 83 | 1009.4 |
| 20260505201319 | 54 | 180 | 2.0 | 7.0 | 0.00 | 0.00 | 0.00 | 83 | 1009.4 |
| 20260505195910 | 55 | 225 | 6.0 | 19.0 | 0.00 | 0.00 | 0.00 | 80 | 1009.4 |
| 20260505194549 | 55 | 225 | 6.0 | 19.0 | 0.00 | 0.00 | 0.00 | 80 | 1009.4 |
| 20260505193315 | 56 | 225 | 11.0 | 19.0 | 0.00 | 0.00 | 0.00 | 73 | 1009.0 |
| 20260505192101 | 56 | 225 | 11.0 | 19.0 | 0.00 | 0.00 | 0.00 | 73 | 1009.0 |
| 20260505190647 | 56 | 225 | 11.0 | 19.0 | 0.00 | 0.00 | 0.00 | 73 | 1009.0 |
| 20260505185327 | 58 | 270 | 16.0 | 26.0 | 0.00 | 0.00 | 0.00 | 67 | 1008.2 |